Regional Weather Roundup
Issued by NWS Newport/Morehead, NC

Home | Current Version | Previous Version | Text Only | Print | Product List | Glossary On
Versions: 1 2 3 4 5 6 7 8 9 10 11 12 13 14 15 16 17 18 19 20 21 22 23 24 25 26 27 28 29 30 31 32 33 34 35 36 37 38 39 40 41 42 43 44 45 46 47 48 49 50
000
ASUS42 KMHX 240326
RWRMHX
WEATHER ROUNDUP FOR EASTERN NORTH CAROLINA
NATIONAL WEATHER SERVICE NEWPORT/MOREHEAD CITY NC
1000 PM EST THU JAN 23 2020

NOTE: "FAIR" INDICATES FEW OR NO CLOUDS BELOW 12,000 FEET
WITH NO SIGNIFICANT WEATHER AND/OR OBSTRUCTIONS TO VISIBILITY

NCZ015>017-031-032-045>047-102-103-240400-
NORTH COAST

CITY           SKY/WX    TMP DP  RH WIND       PRES   REMARKS
EDENTON        NOT AVBL
ELIZABETH CITY FAIR      44  40  85 MISG      30.27F
KITTY HAWK     FAIR      48  47  98 N3        30.23F
MANTEO         FAIR      47  46  97 N8        30.25F

$$

NCZ045>047-081-094-103-104-240400-
CENTRAL COAST

CITY           SKY/WX    TMP DP  RH WIND       PRES   REMARKS
FRISCO         FAIR      51  48  89 N8        30.22S

$$

NCZ095-097-098-100-101-240400-
SOUTHERN COAST

CITY           SKY/WX    TMP DP  RH WIND       PRES   REMARKS
BEAUFORT       FAIR      50  47  89 NE8       30.22S
CEDAR ISLAND   NOT AVBL
JACKSONVILLE   MOCLDY    51  46  83 N6        30.22F
PINEY ISLAND   NOT AVBL
WILMINGTON     FAIR      50  44  80 NE6       30.22F


$$

NCZ011>013-027>030-043-044-078>080-089-090>093-098-240400-
COASTAL PLAIN

CITY           SKY/WX    TMP DP  RH WIND       PRES   REMARKS
AHOSKIE        NOT AVBL
CLINTON        FAIR      45  40  84 NE6       30.24F
ELIZABETHTOWN  FAIR      45  40  83 N5        30.23S
GOLDSBORO      CLOUDY    44  37  75 NE5       30.24F
GREENVILLE     FAIR      43  37  81 N3        30.26F
HAVELOCK       CLOUDY    52  46  80 NE3       30.24S
KENANSVILLE    MOCLDY    45  39  81 CALM      30.24F
KINSTON        FAIR      44  39  82 N5        30.25F
NEW BERN       FAIR      48  44  86 NE6       30.24S
RICHLANDS      FAIR      47  43  86 N5        30.24F
ROCKY MOUNT    MOCLDY    40  34  79 N6        30.27F
WASHINGTON     FAIR      45  42  90 CALM      30.25F
WHITEVILLE     FAIR      48  41  78 NE3       30.20F

$$

AMZ130-135-150-152-154-156-158-170-250-252-270-ANZ085-086-088-633-658-670-240400-
MARINE OBSERVATIONS

STATION/POSITION TIME  TEMP    WIND        PRES    WAVE   SWELL
                       AIR SEA DIR/SP/G            HT/PER HT/PER
                 (UTC) (F)     (DEG/KT/KT) (MB)    (FT/S) (FT/S)
64 E VA BEACH    0250   57 52   60/ 12/ 14 1024.4    6/ 8   5/ 8
DUCK             0242   46     350/ 12/ 12 1023.9
2 E DUCK         0300      46                N/A     5/ 8   2/11
10 NE DUCK       0300      48                N/A     6/ 8   2/11
OREGON INLET     0242   50 46  360/  8/  9 1023.7
13E OREGON INLT  0316      49                N/A     7/10   7/10
HATTERAS CG      0242   47 46   20/  7/  8 1023.2
DIAMOND BUOY     0310   67 75  100/ 17/ 21 1022.0
CAPE LOOKOUT     0300   48     360/  8/ 10 1023.4
BEAUFORT LAB     0242   50 47   10/  8/ 11 1023.7
30 SE NEW RVR IN 0308   58 65   60/ 17/ 23 1022.5
30 SE NEW RVR IN 0300      65                N/A     7/10   3/11
27 SE WRIGHTSVLE 0308   56 64   50/ 16/ 19 1023.3
5 SE WRIGHTSVLE  0308   53 52   50/ 10/ 14 1022.6
27 SE WRIGHTSVL  0308   56 64   50/ 16/ 19 1023.3
FRYING PAN BUOY  0310   60 64   30/ 10/ 16 1021.8
225 S CAPE HAT   0310   66      80/ 17/ 21 1021.4
41 SE CHARLESTON 0310      72              1020.5

$$



USA.gov is the U.S. government's official web portal to all federal, state and local government web resources and services.